Meteo Giornale » Osservazioni meteo Montenegro » Podgorica

ore: 20:00 - Osservazioni Meteo Podgorica
Lat. 42° 26' N Lon. 19° 17' E Alt. 53 metri s.l.m.

poco_nuvoloso

31 °C

Poco Nuvoloso

Temp. 24 Ore

25 °C

36 °C

Sud-Est

9.3 Km/h

Dew point 21 °C

Umidità 55 %

Visibilità  10 Km

Il sole sorge alle ore 06:07

Il sole tramonta alle ore 19:17

Data e Ora Cielo e Fenomeni T °C DP °C Um. % Pres. hPa Vis. km Vento km/h
Oggi h: 20:00 poco_nuvoloso Poco Nuvoloso 31 21 55 1014 10 SE 9.3
Oggi h: 19:30 poco_nuvoloso Poco Nuvoloso 32 20 49 1013 10 E/SE 7.4
Oggi h: 19:00 poco_nuvoloso Poco Nuvoloso 33 19 43 1013 10 N 5.5
Oggi h: 18:30 poco_nuvoloso Poco Nuvoloso 34 20 43 1013 10 S 9.3
Oggi h: 18:00 poco_nuvoloso Poco Nuvoloso 34 20 43 1013 10 S 13
Oggi h: 17:30 poco_nuvoloso Poco Nuvoloso 35 20 41 1013 10 S 13
Oggi h: 17:00 poco_nuvoloso Poco Nuvoloso 36 19 36 1013 10 S/SO 13
Oggi h: 16:30 poco_nuvoloso Poco Nuvoloso 36 18 34 1013 10 S/SO 14.8
Oggi h: 16:00 poco_nuvoloso Poco Nuvoloso 36 19 36 1013 10 S 13
Oggi h: 15:30 poco_nuvoloso Poco Nuvoloso 36 20 39 1013 10 S 13
Oggi h: 15:00 nuvoloso Nuvoloso 36 19 36 1013 10 S 7.4
Oggi h: 14:30 poco_nuvoloso Poco Nuvoloso 36 16 30 1014 10 N 5.5
Oggi h: 14:00 poco_nuvoloso Poco Nuvoloso 35 19 39 1014 10 S/SE 11.1
Oggi h: 13:30 poco_nuvoloso Poco Nuvoloso 34 19 41 1014 10 S/SE 9.3
Oggi h: 13:00 poco_nuvoloso Poco Nuvoloso 34 20 43 1014 10 N 5.5
Oggi h: 12:30 poco_nuvoloso Poco Nuvoloso 34 20 43 1014 10 S/SE 9.3
Oggi h: 12:00 poco_nuvoloso Poco Nuvoloso 33 20 46 1015 10 N 5.5
Oggi h: 11:30 poco_nuvoloso Poco Nuvoloso 32 20 49 1015 10 N 3.7
Oggi h: 11:00 poco_nuvoloso Poco Nuvoloso 32 20 49 1015 10 N 3.7
Oggi h: 10:30 poco_nuvoloso Poco Nuvoloso 32 20 49 1015 10 N 5.5
Oggi h: 10:00 poco_nuvoloso Poco Nuvoloso 30 19 51 1015 10 N/NE 7.4
Oggi h: 09:30 poco_nuvoloso Poco Nuvoloso 30 18 48 1015 10 N 9.3
Oggi h: 09:00 poco_nuvoloso Poco Nuvoloso 29 18 51 1015 10 N 11.1
Oggi h: 08:30 poco_nuvoloso Poco Nuvoloso 28 18 54 1015 10 N/NO 11.1
Oggi h: 08:00 poco_nuvoloso Poco Nuvoloso 28 18 54 1015 10 N/NO 9.3
Oggi h: 07:30 poco_nuvoloso Poco Nuvoloso 26 18 61 1015 10 N/NO 9.3
Oggi h: 07:00 poco_nuvoloso Poco Nuvoloso 25 19 69 1015 10 N 5.5
Oggi h: 06:30 poco_nuvoloso Poco Nuvoloso 25 19 69 1015 10 N 5.5
Oggi h: 06:00 poco_nuvoloso Poco Nuvoloso 25 19 69 1015 10 N 3.7
Oggi h: 05:30 poco_nuvoloso Poco Nuvoloso 25 19 69 1015 10 N 3.7
Oggi h: 05:00 poco_nuvoloso Poco Nuvoloso 26 19 65 1015 10 N/NO 11.1
Oggi h: 04:30 poco_nuvoloso Poco Nuvoloso 26 20 69 1015 10 N/NO 11.1
Oggi h: 04:00 poco_nuvoloso Poco Nuvoloso 26 20 69 1015 10 N 11.1
Oggi h: 03:30 poco_nuvoloso Poco Nuvoloso 26 22 78 1015 10 N 7.4
Oggi h: 03:00 poco_nuvoloso Poco Nuvoloso 27 23 78 1015 10 N 5.5
Oggi h: 02:30 poco_nuvoloso Poco Nuvoloso 27 22 74 1015 10 N 5.5
Oggi h: 02:00 sereno Sereno 27 22 74 1014 10 NE 7.4
Oggi h: 01:30 sereno Sereno 27 23 78 1014 10 N 5.5
Oggi h: 01:00 sereno Sereno 27 23 78 1014 10 N 5.5
Oggi h: 00:30 sereno Sereno 27 23 78 1014 10 N 5.5
Oggi h: 00:00 sereno Sereno 27 23 78 1014 10 SE 7.4
Ieri h: 23:30 sereno Sereno 28 23 74 1014 10 S/SE 7.4
Ieri h: 23:00 sereno Sereno 28 22 69 1014 10 E/SE 7.4
Ieri h: 22:30 sereno Sereno 28 23 74 1013 10 N 5.5
Ieri h: 22:00 sereno Sereno 28 23 74 1013 10 S/SE 7.4
Ieri h: 21:30 sereno Sereno 29 23 70 1013 10 SO 7.4
Ieri h: 21:00 sereno Sereno 29 23 70 1013 10 S/SE 14.8